SR1WXW Weather Reports


Display with metric or nautical units.
time (UTC)temp
F
wind
direction
speed
MPH
gust
MPH
rain 1hr
in
rain 24hr
in
rain mn
in
humidity
%
barometer
mb
20260905231054 53 202 0.0 0.0 0.00 0.42 0.00 92 1010.0
20260905230554 53 202 0.0 0.0 0.00 0.42 0.00 92 1010.0
20260905230054 53 247 0.0 0.0 0.00 0.42 0.00 92 1010.1
20260905225554 53 247 0.0 0.0 0.00 0.42 0.00 92 1010.1
20260905225054 53 225 3.0 5.0 0.00 0.42 0.00 92 1010.2
20260905224554 53 270 3.0 4.0 0.00 0.42 0.00 92 1010.0
20260905224054 53 270 0.0 4.0 0.00 0.42 0.00 92 1010.0
20260905223554 53 270 0.0 0.0 0.00 0.42 0.00 92 1010.2
20260905223054 53 292 0.0 0.0 0.00 0.42 0.00 92 1010.1
20260905222554 53 270 0.0 0.0 0.00 0.42 0.00 92 1010.0
20260905222054 53 225 1.0 3.0 0.00 0.42 0.00 92 1010.1
20260905221554 53 270 0.0 0.0 0.00 0.42 0.00 92 1010.0
20260905221054 53 270 2.0 4.0 0.00 0.42 0.00 92 1010.0
20260905220554 53 270 0.0 0.0 0.00 0.42 0.00 92 1010.0
20260905220054 53 270 0.0 0.0 0.00 0.42 0.00 92 1009.9
20260905215554 53 247 2.0 3.0 0.00 0.42 0.00 92 1009.9
20260905215054 53 270 1.0 4.0 0.00 0.42 0.00 92 1009.9
20260905214554 53 247 4.0 7.0 0.00 0.42 0.00 92 1009.8
20260905214054 53 270 4.0 6.0 0.00 0.42 0.00 92 1009.9
20260905213554 53 225 6.0 6.0 0.02 0.42 0.00 92 1009.7
20260905213054 53 270 6.0 6.0 0.02 0.42 0.00 92 1009.7
20260905212554 53 292 1.0 5.0 0.02 0.42 0.00 92 1009.7
20260905212054 53 270 1.0 5.0 0.02 0.42 0.00 92 1009.6
20260905211554 53 270 2.0 5.0 0.02 0.42 0.00 92 1009.6
20260905211054 53 247 2.0 7.0 0.02 0.42 0.00 92 1009.5
20260905210554 53 270 2.0 8.0 0.02 0.42 0.00 91 1009.3
20260905210054 53 180 2.0 3.0 0.02 0.42 0.00 91 1009.5
20260905205554 53 270 1.0 3.0 0.02 0.42 0.00 91 1009.4
20260905205054 53 247 2.0 4.0 0.02 0.42 0.00 91 1009.5
20260905204554 53 247 2.0 5.0 0.02 0.42 0.00 91 1009.5
20260905204054 53 270 1.0 4.0 0.02 0.42 0.00 91 1009.4
20260905203554 53 225 1.0 4.0 0.00 0.40 0.00 91 1009.3
20260905203054 53 270 0.0 3.0 0.00 0.40 0.00 91 1009.3
20260905202554 53 247 1.0 4.0 0.00 0.40 0.00 91 1009.2
20260905202054 53 270 0.0 4.0 0.00 0.40 0.00 91 1009.3
20260905201554 54 247 4.0 4.0 0.00 0.40 0.00 91 1009.1
20260905201054 54 225 2.0 4.0 0.00 0.40 0.00 91 1009.2
20260905200554 54 247 2.0 3.0 0.00 0.40 0.00 91 1009.1
20260905200054 54 270 2.0 3.0 0.00 0.40 0.00 91 1009.1
20260905195554 54 225 2.0 6.0 0.00 0.48 0.00 91 1009.1
20260905195054 54 270 2.0 6.0 0.00 0.48 0.00 91 1008.9
20260905194554 54 225 1.0 4.0 0.00 0.48 0.00 91 1009.0
20260905194054 54 247 2.0 4.0 0.00 0.48 0.00 91 1009.0
20260905193554 54 225 1.0 4.0 0.00 0.48 0.00 91 1009.0
20260905193054 54 247 2.0 4.0 0.00 0.48 0.00 91 1009.0
20260905192554 54 247 4.0 4.0 0.00 0.48 0.00 91 1008.8
20260905192054 54 247 3.0 4.0 0.00 0.48 0.00 91 1008.7
20260905191554 54 270 2.0 7.0 0.00 0.48 0.00 91 1008.7
20260905191054 54 202 3.0 8.0 0.00 0.48 0.00 91 1008.8
20260905190554 54 247 0.0 3.0 0.00 0.48 0.00 91 1008.7
20260905190054 54 270 0.0 3.0 0.00 0.48 0.00 91 1008.6
20260905185554 54 270 1.0 3.0 0.00 0.71 0.00 91 1008.6
20260905185054 54 247 0.0 4.0 0.00 0.71 0.00 91 1008.4
20260905184554 54 247 0.0 3.0 0.00 0.71 0.00 91 1008.4
20260905184055 54 270 0.0 4.0 0.00 0.71 0.00 91 1008.5
20260905183555 54 247 1.0 4.0 0.00 0.71 0.00 91 1008.5
20260905183054 54 247 2.0 5.0 0.00 0.71 0.00 90 1008.4
20260905182555 54 247 2.0 2.0 0.00 0.71 0.00 90 1008.3
20260905182055 54 225 2.0 5.0 0.00 0.71 0.00 90 1008.4
20260905181555 54 225 1.0 79.0 0.00 0.71 0.00 90 1008.6
20260905181055 54 247 1.0 6.0 0.00 0.71 0.00 90 1008.5
20260905180555 54 270 0.0 3.0 0.00 0.71 0.00 90 1008.4
20260905180055 54 270 6.0 56.0 0.00 0.71 0.00 90 1008.4
20260905175555 54 270 2.0 87.0 0.00 0.71 0.00 90 1008.3
20260905175055 54 225 1.0 3.0 0.00 0.71 0.00 90 1008.2
20260905174555 54 270 3.0 5.0 0.00 0.71 0.00 90 1008.3
20260905174055 54 225 1.0 4.0 0.00 0.71 0.00 90 1008.2
20260905173555 54 225 2.0 4.0 0.00 0.71 0.00 90 1008.3
20260905173055 54 270 0.0 4.0 0.00 0.71 0.00 90 1008.2
20260905172555 54 247 2.0 6.0 0.00 0.71 0.00 89 1008.2
20260905172055 55 247 1.0 4.0 0.00 0.71 0.00 89 1008.2
20260905171555 55 270 1.0 3.0 0.00 0.71 0.00 89 1008.1
20260905171055 55 247 2.0 3.0 0.00 0.71 0.00 89 1008.2
20260905170555 55 225 1.0 3.0 0.00 0.71 0.00 89 1008.0
20260905170055 55 270 3.0 3.0 0.00 0.71 0.00 89 1007.9
20260905165555 55 270 2.0 4.0 0.00 0.71 0.00 89 1008.0
20260905165055 55 247 1.0 5.0 0.00 0.71 0.00 89 1007.9
20260905164555 55 225 1.0 3.0 0.00 0.71 0.00 89 1007.8
20260905164055 55 202 5.0 5.0 0.00 0.71 0.00 89 1007.7
20260905163555 55 270 0.0 2.0 0.00 0.71 0.00 89 1007.7
20260905163055 55 247 1.0 4.0 0.00 0.71 0.00 89 1007.6
20260905162555 55 270 4.0 4.0 0.00 0.71 0.00 89 1007.4
20260905162055 55 225 3.0 5.0 0.00 0.71 0.00 89 1007.5
20260905161555 55 202 3.0 3.0 0.00 0.71 0.00 88 1007.6
20260905161055 55 247 0.0 2.0 0.00 0.71 0.00 88 1007.5
20260905160555 55 225 1.0 2.0 0.00 0.71 0.00 88 1007.4
20260905160055 55 225 1.0 2.0 0.02 0.71 0.00 88 1007.5
20260905155555 56 202 2.0 3.0 0.10 0.71 0.00 88 1007.3
20260905155055 56 202 1.0 3.0 0.12 0.71 0.00 88 1007.3
20260905154555 56 225 1.0 3.0 0.12 0.71 0.00 88 1007.2
20260905154055 56 247 3.0 3.0 0.12 0.71 0.00 88 1007.2
20260905153555 55 225 1.0 4.0 0.16 0.71 0.00 87 1007.2
20260905153055 55 202 1.0 2.0 0.22 0.71 0.00 87 1007.1
20260905152555 55 247 0.0 2.0 0.26 0.71 0.00 86 1007.1
20260905152055 55 202 0.0 1.0 0.28 0.71 0.00 86 1007.3
20260905151555 55 202 0.0 2.0 0.28 0.71 0.00 86 1007.3
20260905151055 55 247 0.0 1.0 0.28 0.71 0.00 85 1007.5
20260905150555 55 225 0.0 2.0 0.28 0.71 0.00 85 1007.6
20260905150055 55 247 1.0 4.0 0.22 0.65 0.00 85 1007.8
20260905145555 55 225 2.0 4.0 0.18 0.61 0.00 85 1007.7
20260905145055 56 270 1.0 2.0 0.16 0.59 0.00 84 1007.5
20260905144555 56 292 1.0 2.0 0.16 0.59 0.00 83 1006.8
20260905144055 57 270 2.0 3.0 0.14 0.57 0.00 82 1006.6
20260905143555 58 270 1.0 6.0 0.08 0.50 0.00 80 1006.9
20260905143055 60 270 3.0 9.0 0.02 0.46 0.00 80 1006.9
20260905142555 61 292 6.0 9.0 0.00 0.42 0.00 82 1007.0
20260905142055 61 247 0.0 1.0 0.02 0.42 0.00 81 1006.3
20260905141555 61 270 0.0 2.0 0.12 0.42 0.00 81 1006.4
20260905141055 61 270 1.0 2.0 0.12 0.42 0.00 81 1006.2
20260905140555 61 270 0.0 2.0 0.12 0.42 0.00 81 1006.2
20260905140055 61 270 0.0 3.0 0.12 0.42 0.00 80 1006.5
20260905135555 61 270 0.0 1.0 0.12 0.73 0.00 80 1006.5
20260905135055 61 202 1.0 2.0 0.12 0.73 0.00 79 1006.5
20260905134555 61 270 0.0 2.0 0.12 0.73 0.00 78 1006.5
20260905134055 61 247 0.0 1.0 0.12 0.73 0.00 77 1006.7
20260905133555 62 225 0.0 2.0 0.12 0.73 0.00 76 1006.7
20260905133055 63 270 0.0 6.0 0.12 0.73 0.00 74 1003.5
20260905132555 64 270 2.0 7.0 0.12 0.73 0.00 73 1003.5
20260905132055 65 270 0.0 6.0 0.04 0.65 0.00 71 1003.6
20260905131555 66 247 2.0 3.0 0.00 0.61 0.00 71 1003.4
20260905131055 66 247 2.0 5.0 0.00 0.61 0.00 71 1002.9
20260905130555 66 135 3.0 4.0 0.00 0.61 0.00 72 1002.8
20260905130055 66 292 4.0 4.0 0.00 0.61 0.00 72 1002.7
20260905125555 66 270 2.0 3.0 0.00 0.61 0.00 71 1002.7
20260905125055 66 270 2.0 4.0 0.00 0.61 0.00 70 1002.8
20260905124555 66 270 3.0 7.0 0.00 0.61 0.00 70 1002.9
20260905124055 66 247 6.0 6.0 0.00 0.61 0.00 69 1003.0
20260905123555 67 270 6.0 6.0 0.00 0.61 0.00 70 1002.9
20260905123055 67 270 2.0 9.0 0.00 0.61 0.00 69 1002.8
20260905122555 67 337 3.0 9.0 0.00 0.61 0.00 72 1002.9
20260905122055 66 247 5.0 11.0 0.00 0.61 0.00 72 1002.8
20260905121555 66 247 2.0 8.0 0.00 0.61 0.00 71 1002.9
20260905121055 66 292 7.0 9.0 0.00 0.61 0.00 71 1002.9
20260905120555 66 270 2.0 8.0 0.00 0.61 0.00 71 1004.8
20260905120055 66 225 5.0 6.0 0.00 0.61 0.00 71 1006.3
20260905115555 66 270 11.0 11.0 0.00 0.79 0.00 71 1006.3
20260905115055 66 270 3.0 5.0 0.00 0.79 0.00 72 1006.3
20260905114555 67 270 2.0 7.0 0.00 0.79 0.00 71 1006.4
20260905114055 67 225 5.0 8.0 0.00 0.79 0.00 72 1006.3
20260905113555 67 270 8.0 8.0 0.00 0.79 0.00 72 1006.0
20260905113056 67 247 2.0 7.0 0.00 0.79 0.00 73 1006.1
20260905112555 67 270 2.0 6.0 0.00 0.79 0.00 74 1006.1
20260905112055 66 202 3.0 5.0 0.00 0.79 0.00 75 1006.1
20260905111555 66 247 4.0 10.0 0.00 0.79 0.00 74 1006.1
20260905111056 66 247 2.0 8.0 0.00 0.79 0.00 75 1006.1
20260905110556 66 202 0.0 0.0 0.00 0.79 0.00 77 1006.0
20260905110056 65 270 3.0 5.0 0.00 0.79 0.00 76 1006.1
20260905105556 65 202 0.0 0.0 0.00 1.08 0.00 77 1006.1
20260905105056 65 202 0.0 0.0 0.00 1.08 0.00 77 1006.2
20260905104556 64 270 3.0 4.0 0.00 1.08 0.00 76 1006.3
20260905104056 64 292 1.0 5.0 0.00 1.08 0.00 77 1006.2
20260905103556 64 270 1.0 5.0 0.00 1.08 0.00 77 1006.1
20260905103056 64 270 2.0 6.0 0.00 1.08 0.00 77 1006.2
20260905102556 64 270 0.0 0.0 0.00 1.08 0.00 77 1006.0
20260905102056 64 270 0.0 0.0 0.00 1.08 0.00 77 1006.1
20260905101556 64 270 0.0 0.0 0.00 1.08 0.00 76 1006.1
20260905101056 64 157 2.0 5.0 0.00 1.08 0.00 75 1006.2
20260905100556 64 225 1.0 4.0 0.00 1.08 0.00 75 1006.0
20260905100056 64 270 4.0 7.0 0.00 1.08 0.00 76 1006.0
20260905095556 64 22 0.0 0.0 0.00 1.28 0.00 76 1006.0
20260905095056 64 22 0.0 0.0 0.00 1.28 0.00 77 1005.8
20260905094556 64 22 0.0 0.0 0.00 1.28 0.00 78 1006.1
20260905094056 64 22 0.0 0.0 0.00 1.28 0.00 78 1006.0
20260905093556 63 22 0.0 0.0 0.00 1.28 0.00 78 1005.8
20260905093056 63 22 0.0 0.0 0.00 1.28 0.00 80 1005.9
20260905092556 63 22 0.0 0.0 0.00 1.28 0.00 80 1006.0
20260905092056 62 22 0.0 0.0 0.00 1.28 0.00 79 1006.0
20260905091556 62 22 0.0 0.0 0.00 1.28 0.00 80 1005.8
20260905091056 62 22 0.0 0.0 0.00 1.28 0.00 80 1005.9
20260905090556 62 22 0.0 0.0 0.00 1.28 0.00 80 1006.0
20260905090056 62 22 0.0 0.0 0.00 1.28 0.00 79 1005.9
20260905085556 62 225 0.0 0.0 0.00 1.52 0.00 79 1005.8
20260905085056 62 225 0.0 0.0 0.00 1.52 0.00 79 1005.7
20260905084556 62 225 0.0 0.0 0.00 1.52 0.00 80 1005.6
20260905084056 63 225 0.0 0.0 0.00 1.52 0.00 80 1005.6
20260905083556 63 225 0.0 0.0 0.00 1.52 0.00 81 1005.6
20260905083056 62 225 0.0 0.0 0.00 1.52 0.00 81 1005.5
20260905082556 62 225 0.0 0.0 0.00 1.52 0.00 81 1005.4
20260905082056 62 225 0.0 0.0 0.00 1.52 0.00 81 1005.5
20260905081556 62 225 0.0 0.0 0.00 1.52 0.00 80 1005.5
20260905081056 62 225 0.0 0.0 0.00 1.52 0.00 80 1005.4
20260905080556 63 225 0.0 0.0 0.00 1.52 0.00 81 1005.3
20260905080056 63 225 0.0 0.0 0.00 1.52 0.00 81 1005.2
20260905075556 63 225 0.0 0.0 0.00 1.52 0.00 82 1005.4
20260905075056 63 225 0.0 0.0 0.00 1.52 0.00 84 1005.2
20260905074556 62 225 0.0 0.0 0.00 1.52 0.00 84 1005.2
20260905074056 62 225 0.0 0.0 0.00 1.52 0.00 85 1005.2
20260905073556 61 225 0.0 0.0 0.00 1.52 0.00 86 1005.2
20260905073056 61 225 0.0 0.0 0.00 1.52 0.00 87 1005.1
20260905072556 60 225 0.0 0.0 0.00 1.52 0.00 87 1005.0
20260905072056 60 225 0.0 0.0 0.00 1.52 0.00 87 1005.0
20260905071556 59 225 0.0 0.0 0.00 1.52 0.00 88 1005.0
20260905071056 59 225 0.0 0.0 0.00 1.52 0.00 88 1004.9
20260905070556 59 225 0.0 0.0 0.00 1.52 0.00 89 1005.0
20260905070056 58 225 0.0 0.0 0.00 1.52 0.00 90 1005.0
20260905065556 58 225 0.0 0.0 0.00 1.52 0.00 90 1004.8
20260905065056 58 225 0.0 0.0 0.00 1.52 0.00 90 1004.8
20260905064556 58 225 0.0 0.0 0.00 1.52 0.00 90 1004.9
20260905064056 57 225 0.0 0.0 0.00 1.52 0.00 90 1004.7
20260905063556 57 225 0.0 0.0 0.00 1.52 0.00 90 1004.8
20260905063056 57 225 0.0 0.0 0.00 1.52 0.00 91 1004.7
20260905062556 57 225 0.0 0.0 0.00 1.52 0.00 91 1004.7
20260905062056 57 225 0.0 0.0 0.00 1.52 0.00 91 1004.6
20260905061556 56 225 0.0 0.0 0.00 1.52 0.00 91 1004.5
20260905061056 56 225 0.0 0.0 0.00 1.52 0.00 91 1004.5
20260905060556 56 225 0.0 0.0 0.00 1.52 0.00 91 1004.4
20260905060056 56 225 0.0 0.0 0.00 1.52 0.00 91 1004.4
20260905055556 55 225 0.0 0.0 0.00 1.52 0.00 91 1004.2
20260905055056 55 225 0.0 0.0 0.00 1.52 0.00 91 1004.1
20260905054556 55 225 0.0 0.0 0.00 1.52 0.00 91 1004.1
20260905054056 55 225 0.0 0.0 0.00 1.52 0.00 91 1004.2
20260905053556 55 225 0.0 0.0 0.00 1.52 0.00 91 1004.1
20260905053056 55 225 0.0 0.0 0.00 1.52 0.00 91 1004.0
20260905052556 55 225 0.0 0.0 0.00 1.52 0.00 91 1003.8
20260905052056 55 225 0.0 0.0 0.00 1.52 0.00 91 1003.8
20260905051556 55 225 0.0 0.0 0.00 1.52 0.00 91 1003.7
20260905051056 56 225 0.0 0.0 0.00 1.52 0.00 91 1003.8
20260905050556 56 225 0.0 0.0 0.00 1.52 0.00 92 1003.6
20260905050056 56 225 0.0 0.0 0.00 1.52 0.00 92 1003.5
20260905045556 56 225 0.0 0.0 0.00 1.54 0.00 92 1003.4
20260905045056 55 225 0.0 0.0 0.00 1.54 0.00 92 1003.3
20260905044556 55 225 0.0 0.0 0.00 1.54 0.00 92 1003.3
20260905044056 55 225 0.0 0.0 0.00 1.54 0.00 92 1003.1
20260905043556 55 225 0.0 0.0 0.00 1.54 0.00 92 1003.2
20260905043056 55 225 0.0 0.0 0.00 1.54 0.00 92 1003.3
20260905042556 55 225 0.0 0.0 0.00 1.54 0.00 92 1003.1
20260905042056 55 225 0.0 0.0 0.00 1.54 0.00 93 1003.0
20260905041557 55 225 0.0 0.0 0.00 1.54 0.00 93 1002.9
20260905041056 55 225 0.0 0.0 0.00 1.54 0.00 93 1002.8
20260905040556 55 225 0.0 0.0 0.00 1.54 0.00 93 1002.9
20260905040057 55 225 0.0 0.0 0.00 1.65 0.00 93 1002.8
20260905035557 55 225 0.0 0.0 0.00 1.65 0.00 93 1002.7
20260905035057 55 225 0.0 0.0 0.00 1.65 0.00 93 1002.6
20260905034557 55 225 0.0 0.0 0.00 1.65 0.00 93 1002.6
20260905034057 55 225 0.0 0.0 0.00 1.65 0.00 93 1002.7
20260905033557 55 225 0.0 0.0 0.00 1.65 0.00 93 1002.7
20260905033057 55 225 0.0 0.0 0.00 1.65 0.00 93 1002.6
20260905032557 55 225 0.0 0.0 0.00 1.65 0.00 93 1002.5
20260905032057 55 225 0.0 0.0 0.00 1.65 0.00 93 1002.4
20260905031557 55 225 0.0 0.0 0.00 1.65 0.00 93 1002.3
20260905031057 55 225 0.0 0.0 0.00 1.65 0.00 93 1002.2
20260905030557 55 225 0.0 0.0 0.00 1.65 0.00 93 1002.2
20260905030057 55 225 0.0 0.0 0.00 1.65 0.00 93 1002.3
20260905025557 54 225 0.0 0.0 0.00 1.65 0.00 92 1002.3
20260905025057 54 225 0.0 0.0 0.00 1.65 0.00 92 1002.2
20260905024557 54 225 0.0 0.0 0.00 1.65 0.00 92 1002.3
20260905024057 54 225 0.0 0.0 0.00 1.65 0.00 92 1002.2
20260905023557 54 225 0.0 0.0 0.00 1.65 0.00 92 1002.2
20260905023057 54 225 0.0 0.0 0.00 1.65 0.00 92 1002.1
20260905022557 54 225 0.0 0.0 0.00 1.65 0.00 92 1002.1
20260905022057 54 225 0.0 0.0 0.00 1.65 0.00 92 1002.0
20260905021557 54 225 0.0 0.0 0.00 1.65 0.00 92 1002.0
20260905021057 54 225 0.0 0.0 0.00 1.65 0.00 92 1002.0
20260905020557 54 225 0.0 0.0 0.00 1.65 0.00 92 1002.0
20260905020057 54 225 0.0 0.0 0.00 1.65 0.00 92 1002.0
20260905015557 54 225 0.0 0.0 0.00 1.65 0.00 92 1002.1
20260905015057 54 225 0.0 0.0 0.00 1.65 0.00 92 1001.9
20260905014557 55 225 0.0 0.0 0.00 1.65 0.00 93 1002.1
20260905014057 55 225 0.0 0.0 0.00 1.65 0.00 93 1002.0
20260905013557 55 225 0.0 0.0 0.00 1.65 0.00 93 1002.1
20260905013057 55 225 0.0 0.0 0.00 1.65 0.00 93 1002.0
20260905012557 55 225 0.0 0.0 0.00 1.65 0.00 93 1002.0
20260905012057 55 225 0.0 0.0 0.00 1.65 0.00 93 1002.0
20260905011557 55 225 0.0 0.0 0.00 1.65 0.00 93 1001.8
20260905011057 55 225 0.0 0.0 0.00 1.65 0.00 93 1001.9
20260905010557 55 225 0.0 0.0 0.00 1.65 0.00 93 1001.7
20260905010057 55 225 0.0 0.0 0.00 1.65 0.00 93 1001.7
20260905005557 55 225 0.0 0.0 0.00 1.65 0.00 93 1001.7
20260905005057 55 225 0.0 0.0 0.00 1.65 0.00 93 1001.6
20260905004557 55 225 0.0 0.0 0.00 1.65 0.00 93 1001.6
20260905004057 55 225 0.0 0.0 0.00 1.65 0.00 93 1001.4
20260905003557 55 225 0.0 0.0 0.00 1.65 0.00 93 1001.5
20260905003057 55 225 0.0 0.0 0.00 1.65 0.00 93 1001.3
20260905002557 55 225 0.0 0.0 0.00 1.65 0.00 93 1001.3
20260905002057 55 225 0.0 0.0 0.00 1.65 0.00 93 1001.0
20260905001557 55 225 0.0 0.0 0.00 1.65 0.00 93 1001.1
20260905001057 55 225 0.0 0.0 0.00 1.65 0.00 93 1001.1
20260905000557 56 225 0.0 0.0 0.00 1.65 0.00 93 1001.0
20260905000057 56 225 0.0 0.0 0.00 1.65 0.00 93 1000.9
20260904235557 56 225 0.0 0.0 0.00 1.65 0.00 93 1000.9
20260904235057 56 225 0.0 0.0 0.00 1.65 0.00 93 1000.9
20260904234557 56 225 0.0 0.0 0.00 1.65 0.00 93 1000.8
20260904234057 56 225 0.0 0.0 0.00 1.65 0.00 93 1000.8
20260904233557 57 225 0.0 0.0 0.00 1.65 0.00 93 1000.8
20260904233057 57 225 0.0 0.0 0.00 1.65 0.00 93 1000.8
20260904232557 57 225 0.0 0.0 0.00 1.65 0.00 93 1000.6
20260904232057 57 225 0.0 0.0 0.00 1.65 0.00 93 1000.5
20260904231557 57 225 0.0 0.0 0.00 1.65 0.00 93 1000.6